"Pseudo-MPEC" for ZTs0005

Created 2022 Dec 14 14:22:15 UT using Find_Orb

Click here for an explanation of pseudo-MPECs

 
 Astrometry: 
     ZTs0005  C2022 11 27.28137004 12 04.543-21 27 39.29   ~C9Eq 16.96RUNEOCPI41
     ZTs0005  C2022 11 27.28171704 12 06.483-21 27 31.09   ~C9Eq 16.96RUNEOCPI41
     ZTs0005* C2022 11 27.33595104 16 40.112-21 09 45.30   ~C9Db 17.89gUNEOCPI41
     ZTs0005  C2022 11 27.33629804 16 41.529-21 09 39.02   ~C9Db 17.89gUNEOCPI41
     ZTs0005  C2022 11 27.35450704 17 56.928-21 04 12.44   ~C9Db 17.97gUNEOCPI41
     ZTs0005  C2022 11 27.35485404 17 58.279-21 04 05.50   ~C9Db 17.97gUNEOCPI41

Station data:
(I41) Palomar Mountain--ZTF  (N33.357338 W116.859780)  US/California.
   Observers B. T. Bolin, Z. T. F. Collaboration. Measurers B. T. Bolin,
   Z.-Y. Lin, F. J. Masci. 1.2-m f/2.4 Schmidt.

Orbital elements:  ZTs0005
   Perigee 2022 Nov 26.95497 +/- 0.00235 TT = 22:55:09 (JD 2459910.45497)
Epoch 2022 Nov 27.0 TT = JDT 2459910.5                           AutoNEOCP
q 50033.3131 +/- 1561               (J2000 equator)
H   29.11 G 0.15                    Peri.  203.34942 +/- 0.8
                                    Node   134.36942 +/- 0.56
e  14.7738412 +/- 1.27              Incl.   21.50557 +/- 0.09
From 6 observations 2022 Nov. 27 (1.8 hr); mean residual 0".47
Residuals in arcseconds: 
221127 I41  .76+  .43-    221127 I41  .59+  .04+    221127 I41  .16+  .42-    
221127 I41  .77-  .44+    221127 I41  .59-  .05-    221127 I41  .16-  .42+    

Ephemerides (geocentric):
Date (UTC) HH   RA             Dec           delta  r     elong  mag " sig PA
---- --------  ------------   ------------  ------ ------ -----  --- --------
2022 12 14 14  04 52 38.013   -17 47 40.64  .10794 1.0673 138.2 26.0  230  84
2022 12 14 15  04 52 38.242   -17 47 20.04  .10820 1.0675 138.2 26.0  230  84
2022 12 14 16  04 52 38.471   -17 46 59.39  .10847 1.0676 138.2 26.0  230  84
2022 12 14 17  04 52 38.701   -17 46 38.70  .10873 1.0678 138.2 26.0  230  84
2022 12 14 18  04 52 38.932   -17 46 17.96  .10899 1.0680 138.2 26.0  230  84
2022 12 14 19  04 52 39.163   -17 45 57.19  .10925 1.0682 138.2 26.0  230  84
2022 12 14 20  04 52 39.395   -17 45 36.37  .10951 1.0684 138.2 26.0  230  84
2022 12 14 21  04 52 39.627   -17 45 15.51  .10977 1.0686 138.1 26.0  230  84
2022 12 14 22  04 52 39.861   -17 44 54.61  .11003 1.0688 138.1 26.0  230  84
2022 12 14 23  04 52 40.094   -17 44 33.67  .11029 1.0690 138.1 26.0  230  84
2022 12 15 00  04 52 40.329   -17 44 12.69  .11055 1.0692 138.1 26.0  230  84
2022 12 15 01  04 52 40.564   -17 43 51.66  .11081 1.0694 138.1 26.0  230  84
2022 12 15 02  04 52 40.800   -17 43 30.60  .11107 1.0696 138.1 26.1  230  84
2022 12 15 03  04 52 41.037   -17 43 09.49  .11133 1.0698 138.1 26.1  230  84
2022 12 15 04  04 52 41.274   -17 42 48.34  .11159 1.0700 138.1 26.1  230  84
2022 12 15 05  04 52 41.512   -17 42 27.15  .11185 1.0702 138.1 26.1  230  84
2022 12 15 06  04 52 41.751   -17 42 05.91  .11212 1.0704 138.1 26.1  230  84
2022 12 15 07  04 52 41.991   -17 41 44.64  .11238 1.0706 138.1 26.1  230  84
2022 12 15 08  04 52 42.231   -17 41 23.32  .11264 1.0708 138.1 26.1  230  84
2022 12 15 09  04 52 42.472   -17 41 01.97  .11290 1.0710 138.1 26.1  230  84
2022 12 15 10  04 52 42.714   -17 40 40.57  .11316 1.0712 138.1 26.1  230  84
2022 12 15 11  04 52 42.957   -17 40 19.13  .11342 1.0714 138.1 26.1  230  84
2022 12 15 12  04 52 43.200   -17 39 57.65  .11368 1.0716 138.1 26.1  230  84
2022 12 15 13  04 52 43.444   -17 39 36.12  .11394 1.0717 138.1 26.1  230  84
2022 12 15 14  04 52 43.689   -17 39 14.56  .11421 1.0719 138.0 26.1  230  84
2022 12 15 15  04 52 43.935   -17 38 52.95  .11447 1.0721 138.0 26.1  230  84
2022 12 15 16  04 52 44.182   -17 38 31.31  .11473 1.0723 138.0 26.1  230  83
2022 12 15 17  04 52 44.429   -17 38 09.62  .11499 1.0725 138.0 26.1  230  83
2022 12 15 18  04 52 44.678   -17 37 47.89  .11525 1.0727 138.0 26.1  230  83
2022 12 15 19  04 52 44.927   -17 37 26.12  .11551 1.0729 138.0 26.1  230  83
2022 12 15 20  04 52 45.177   -17 37 04.31  .11577 1.0731 138.0 26.1  230  83
2022 12 15 21  04 52 45.428   -17 36 42.45  .11604 1.0733 138.0 26.2  230  83
2022 12 15 22  04 52 45.680   -17 36 20.56  .11630 1.0735 138.0 26.2  230  83
2022 12 15 23  04 52 45.932   -17 35 58.62  .11656 1.0737 138.0 26.2  230  83
2022 12 16 00  04 52 46.186   -17 35 36.64  .11682 1.0739 138.0 26.2  230  83
2022 12 16 01  04 52 46.440   -17 35 14.63  .11708 1.0741 138.0 26.2  230  83
2022 12 16 02  04 52 46.696   -17 34 52.57  .11735 1.0743 138.0 26.2  230  83
2022 12 16 03  04 52 46.952   -17 34 30.47  .11761 1.0745 138.0 26.2  230  83
2022 12 16 04  04 52 47.209   -17 34 08.32  .11787 1.0747 138.0 26.2  230  83
2022 12 16 05  04 52 47.468   -17 33 46.14  .11813 1.0749 138.0 26.2  230  83
2022 12 16 06  04 52 47.727   -17 33 23.92  .11839 1.0751 138.0 26.2  230  83
2022 12 16 07  04 52 47.987   -17 33 01.65  .11866 1.0753 137.9 26.2  230  83
2022 12 16 08  04 52 48.248   -17 32 39.35  .11892 1.0755 137.9 26.2  230  83
2022 12 16 09  04 52 48.510   -17 32 17.00  .11918 1.0757 137.9 26.2  230  83
2022 12 16 10  04 52 48.773   -17 31 54.61  .11944 1.0758 137.9 26.2  230  83
2022 12 16 11  04 52 49.037   -17 31 32.18  .11970 1.0760 137.9 26.2  230  83
2022 12 16 12  04 52 49.302   -17 31 09.71  .11997 1.0762 137.9 26.2  230  83
2022 12 16 13  04 52 49.568   -17 30 47.20  .12023 1.0764 137.9 26.2  230  83